Weather History for KRND - November, 2012

Change the Weather History Date:

Sunday, November 11, 2012

  Actual Average Record
Temperature  
Mean Temperature 73 °F -  
Max Temperature 80 °F 69 °F 84 °F (1999)
Min Temperature 65 °F 51 °F 32 °F (2011)
Cooling Degree Days 8    
Growing Degree Days 23 (Base 50)    
Moisture  
Dew Point 59 °F    
Average Humidity 62    
Maximum Humidity 98    
Minimum Humidity 27    
Precipitation  
Precipitation 0.00 in - - ()
Sea Level Pressure  
Sea Level Pressure 29.91 in    
Wind  
Wind Speed 10 mph (SW)    
Max Wind Speed 18 mph    
Max Gust Speed 28 mph    
Visibility 8 miles    
Events      
Averages and records for this station are not official NWS values.
T = Trace of Precipitation, MM = Missing Value Source: NWS Daily Summary

Daily Weather History Graph

Daily Weather History Graph

Search for Another Location

Airport or City:

Trip Planner

Search our weather history database for the weather conditions in past years. The results will help you decide how hot, cold, wet, or windy it might be!

Date:

Astronomy

Nov. 11, 2012 Rise Set
Actual Time 6:54 AM CST 5:39 PM CST
Civil Twilight 6:29 AM CST 6:04 PM CST
Nautical Twilight 6:00 AM CST 6:33 PM CST
Astronomical Twilight 5:32 AM CST 7:01 PM CST
Moon 4:19 AM CST (11/11) 3:57 PM CST (11/11)
Length of Visible Light 11h 35m
Length of Day
10h 45m
Waning Crescent, 7% of the Moon is Illuminated
Nov 11
Waning Crescent
Nov 13
New
Nov 20
First Quarter
Nov 28
Full
Dec 6
Last Quarter

Hourly Weather History & Observations

Time (CST) Temp. Heat Index Dew Point Humidity Pressure Visibility Wind Dir Wind Speed Gust Speed Precip Events Conditions
12:55 AM 70.5 °F - 66.7 °F 88% 29.87 in 10.0 mi SSE 11.5 mph - N/A   Partly Cloudy
1:55 AM 68.9 °F - 66.7 °F 93% 29.85 in 10.0 mi SSE 8.1 mph - N/A   Partly Cloudy
2:55 AM 70.5 °F - 66.7 °F 88% 29.84 in 10.0 mi South 15.0 mph - N/A   Scattered Clouds
3:41 AM 69.8 °F - 66.2 °F 88% 29.84 in 10.0 mi South 12.7 mph - N/A   Mostly Cloudy
3:54 AM 71.6 °F - 66.2 °F 83% 29.83 in 10.0 mi South 11.5 mph - N/A   Scattered Clouds
3:55 AM 70.7 °F - 67.1 °F 88% 29.83 in 10.0 mi South 12.7 mph - N/A   Scattered Clouds
4:55 AM 70.0 °F - 67.3 °F 91% 29.85 in 10.0 mi South 9.2 mph - N/A   Partly Cloudy
5:55 AM 69.6 °F - 67.6 °F 93% 29.87 in 10.0 mi South 9.2 mph - N/A   Scattered Clouds
6:55 AM 67.8 °F - 67.3 °F 98% 29.88 in 10.0 mi South 6.9 mph - N/A   Partly Cloudy
7:55 AM 69.1 °F - 68.0 °F 96% 29.89 in 10.0 mi SSE 8.1 mph - N/A   Clear
8:55 AM 72.3 °F - 66.7 °F 83% 29.91 in 10.0 mi South 11.5 mph - N/A   Clear
9:55 AM 75.7 °F - 65.3 °F 70% 29.92 in 10.0 mi South 16.1 mph 24.2 mph N/A   Clear
10:55 AM 78.3 °F - 62.2 °F 58% 29.91 in 10.0 mi South 17.3 mph 27.6 mph N/A   Clear
11:55 AM 80.1 °F 81.1 °F 61.7 °F 53% 29.88 in 10.0 mi SSW 18.4 mph 25.3 mph N/A   Clear
12:55 PM 79.3 °F - 60.1 °F 52% 29.88 in 9.0 mi South 13.8 mph - N/A   Partly Cloudy
1:35 PM 80.6 °F 81.1 °F 59.0 °F 48% 29.87 in 4.0 mi WSW 12.7 mph 17.3 mph N/A   Haze
1:48 PM 80.6 °F 81.1 °F 59.0 °F 48% 29.87 in 5.0 mi SW 6.9 mph - N/A   Haze
1:55 PM 80.4 °F 81.1 °F 59.7 °F 49% 29.87 in 6.0 mi WSW 9.2 mph - N/A   Haze
2:08 PM 80.6 °F 81.1 °F 59.0 °F 48% 29.87 in 4.0 mi WSW 9.2 mph - N/A   Haze
2:16 PM 80.6 °F 81.5 °F 60.8 °F 51% 29.87 in 5.0 mi SW 8.1 mph - N/A   Haze
2:28 PM 80.6 °F 81.5 °F 60.8 °F 51% 29.87 in 4.0 mi West 9.2 mph - N/A   Haze
2:55 PM 79.7 °F - 61.7 °F 54% 29.87 in 4.0 mi West 8.1 mph - N/A   Haze
3:18 PM 78.8 °F - 62.6 °F 57% 29.88 in 5.0 mi West 3.5 mph - N/A   Haze
3:55 PM 79.5 °F - 62.1 °F 55% 29.89 in 5.0 mi West 8.1 mph - N/A   Haze
3:58 PM 78.8 °F - 62.6 °F 57% 29.89 in 4.0 mi West 5.8 mph - N/A   Haze
4:01 PM 78.8 °F - 62.6 °F 57% 29.89 in 5.0 mi West 5.8 mph - N/A   Haze
4:29 PM 80.6 °F 81.8 °F 62.6 °F 54% 29.90 in 4.0 mi West 6.9 mph - N/A   Haze
4:55 PM 79.7 °F - 62.6 °F 56% 29.91 in 4.0 mi WNW 5.8 mph - N/A   Haze
4:57 PM 78.8 °F - 62.6 °F 57% 29.91 in 5.0 mi WNW 5.8 mph - N/A   Haze
5:55 PM 75.9 °F - 62.1 °F 62% 29.94 in 10.0 mi Calm Calm - N/A   Clear
6:55 PM 73.2 °F - 46.2 °F 38% 29.99 in 10.0 mi North 16.1 mph 24.2 mph N/A   Clear
7:55 PM 69.4 °F - 37.0 °F 31% 30.03 in 10.0 mi North 9.2 mph - N/A   Clear
8:55 PM 68.0 °F - 36.7 °F 32% 30.09 in 10.0 mi NNE 5.8 mph - N/A   Mostly Cloudy
9:55 PM 67.3 °F - 36.1 °F 32% 30.12 in 10.0 mi NE 5.8 mph - N/A   Mostly Cloudy
10:55 PM 66.7 °F - 34.3 °F 30% 30.14 in 10.0 mi North 9.2 mph - N/A   Partly Cloudy
11:55 PM 65.8 °F - 30.9 °F 27% 30.16 in 10.0 mi North 15.0 mph 18.4 mph N/A   Scattered Clouds